Terminal Aerodrome Forecast
Issued by NWS

Home | Current Version | Previous Version | Text Only | Print | Product List | Glossary On
Versions: 1 2 3 4 5 6 7 8 9 10 11 12 13 14 15 16 17
737
FTUS43 KGRR 241740
TAFJXN
TAF
KJXN 241740Z 2418/2518 22013G20KT P6SM -RA OVC100
     FM242300 21007KT P6SM VCTS BKN040CB
     FM250400 23005KT 3SM BR OVC050
     FM251200 26004KT 4SM BR OVC050
     FM251300 29006KT 6SM HZ BKN250=

USA.gov is the U.S. government's official web portal to all federal, state and local government web resources and services.